Probability
3 0 0 0 0 0 0 0 0 0 0 0 0 0 0 0 0 0 0 0 0 0 0 0 0 0 0 0 3 3 6 3 3 0 3 3 3 3 3 3 3 3 3
3 3 0 0 0 0 0 0 0 0 0 0 0 0 0 0 0 0 0 0 0 0 0 0 0 0 0 0 0 3 6 3 3 0 3 3 3 3 3 3 3 3 3
0 3 3 0 0 0 0 0 0 0 0 0 0 0 0 0 0 0 0 0 0 0 0 0 0 0 0 0 3 3 0 3 3 3 3 0 3 0 3 3 3 3 3
0 0 0 0 0 0 0 0 0 0 0 0 0 0 0 0 0 0 0 0 0 0 0 0 0 0 0 0 0 3 0 0 3 3 3 3 0 0 0 0 3 3 3
0 0 0 0 0 0 0 0 0 0 0 0 0 0 0 0 0 0 0 0 0 0 0 0 0 0 0 0 0 0 0 0 0 0 0 0 0 0 0 0 3 3 3
0 0 0 0 0 0 0 0 0 0 0 0 0 0 0 0 0 0 0 0 0 0 0 0 0 0 0 0 0 0 0 0 0 0 0 0 0 0 0 0 3 0 0
0 0 0 0 0 0 0 0 0 0 0 0 0 0 0 0 0 0 0 0 0 0 0 0 0 0 0 0 0 0 0 0 0 0 0 0 3 0 0 0 0 0 0
0 0 0 0 0 0 0 0 0 0 0 0 0 0 0 0 0 0 0 0 0 0 0 0 0 0 0 0 0 0 0 0 0 0 0 0 3 0 0 0 0 0 3
0 0 0 0 0 0 0 0 0 0 0 0 0 0 0 0 0 0 0 0 0 0 0 0 0 0 0 0 0 0 0 0 0 0 0 0 3 3 0 0 0 0 3
0 0 0 0 0 0 0 0 0 0 0 0 0 0 0 0 0 0 0 0 0 0 0 0 0 0 0 0 0 0 0 0 0 0 0 0 0 0 0 0 0 0 0
0 0 0 0 0 0 0 0 0 0 0 0 0 0 0 0 0 0 0 0 0 0 0 0 0 0 0 0 0 0 0 0 0 0 0 0 0 0 0 0 0 0 0
0 0 0 0 0 0 0 0 0 0 0 0 0 0 0 0 0 0 0 0 0 0 0 0 0 0 0 0 0 0 0 0 0 0 0 0 0 0 0 0 0 0 0
0 0 0 0 0 0 0 0 0 0 0 0 0 0 0 0 0 0 0 0 0 0 0 0 0 0 0 0 0 0 0 0 0 0 0 0 0 0 0 0 0 0 0
0 0 0 0 0 0 0 0 0 0 0 0 0 0 0 0 0 0 0 0 0 0 0 0 0 0 0 0 0 0 0 0 0 0 0 0 0 0 0 0 0 0 0
0 0 0 0 0 0 0 0 0 0 0 0 0 0 0 0 0 0 0 0 0 0 0 0 0 0 0 0 0 0 0 0 0 0 0 0 0 0 0 0 0 0 0
0 0 0 0 0 0 0 0 0 0 0 0 0 0 0 0 0 0 0 0 0 0 0 0 0 0 0 0 0 0 0 0 0 0 0 0 0 0 0 0 0 0 0
0 0 0 0 0 0 0 0 0 0 0 0 0 0 0 0 0 0 0 0 0 0 0 0 0 0 0 0 0 0 0 0 0 0 0 0 0 0 0 0 0 0 0
0 0 0 0 0 0 0 0 0 0 0 0 0 0 0 0 0 0 0 0 0 0 0 0 0 0 0 0 0 0 0 0 0 0 0 0 0 0 0 0 0 0 0
0 0 0 0 0 0 0 0 0 0 0 0 0 0 0 0 0 0 0 0 0 0 0 0 0 0 0 0 0 0 0 0 0 0 0 0 0 0 0 0 0 0 0
0 0 0 0 0 0 0 0 0 0 0 0 0 0 0 0 0 0 0 0 0 0 0 0 0 0 0 0 0 0 0 0 0 0 0 0 0 0 0 0 0 0 0
0 0 0 0 0 0 0 0 0 0 0 0 0 0 0 0 0 0 0 0 0 0 0 0 0 0 0 0 0 0 0 0 0 0 0 0 0 0 0 0 0 0 0
0 0 0 0 0 0 0 0 0 0 0 0 0 0 0 0 0 0 0 0 0 0 0 0 0 0 0 0 0 0 0 0 0 0 0 0 0 0 0 0 0 0 0
0 0 0 0 0 0 0 0 0 0 0 0 0 0 0 0 0 0 0 0 0 0 0 0 0 0 0 0 0 0 0 0 0 0 0 0 0 0 0 0 0 0 0
0 0 0 0 0 0 0 0 0 0 0 0 0 0 0 0 0 0 0 0 0 0 0 0 0 0 0 0 0 0 0 0 0 0 0 0 0 0 0 0 0 0 0
0 0 0 0 0 0 0 0 0 0 0 0 0 0 0 0 0 0 0 0 0 0 0 0 0 0 0 0 0 0 0 0 0 0 0 0 0 0 0 0 0 0 0
0 0 0 0 0 0 0 0 0 0 0 0 0 0 0 0 0 0 0 0 0 0 0 0 0 0 0 0 0 0 0 0 0 0 0 0 0 0 0 0 0 0 0
Height
5791 5792 5793 5794 5795 5796 5797 5798 5798 5799 5800 5801 5802 5803 5805 5806 5807 5808 5809 5809 5810 5811 5811 5812 5813 5814 5814 5815 5816 5817 5818 5819 5819 5820 5821 5822 5823 5824 5825 5826 5827 5828 5829
5785 5786 5787 5788 5789 5789 5790 5791 5792 5793 5794 5795 5796 5797 5798 5799 5800 5802 5803 5803 5804 5805 5805 5806 5807 5808 5808 5809 5810 5811 5812 5812 5813 5814 5815 5816 5818 5819 5820 5821 5822 5823 5824
5778 5779 5780 5781 5782 5782 5783 5784 5785 5786 5787 5788 5789 5790 5791 5792 5793 5795 5796 5797 5797 5798 5799 5799 5800 5801 5802 5803 5803 5804 5805 5805 5806 5807 5809 5810 5811 5813 5814 5815 5817 5818 5819
5771 5772 5773 5774 5774 5775 5775 5776 5777 5778 5780 5781 5782 5783 5784 5785 5786 5787 5788 5789 5790 5791 5791 5792 5793 5794 5794 5795 5796 5797 5797 5798 5799 5800 5801 5802 5804 5806 5807 5809 5810 5812 5813
5762 5764 5765 5766 5766 5767 5768 5768 5769 5770 5772 5773 5774 5775 5776 5777 5778 5779 5780 5781 5782 5783 5783 5784 5785 5785 5786 5787 5787 5788 5789 5790 5791 5792 5794 5795 5796 5798 5800 5802 5803 5805 5807
5754 5755 5756 5757 5758 5758 5759 5760 5761 5762 5763 5764 5765 5767 5768 5769 5770 5771 5772 5773 5774 5774 5775 5775 5776 5776 5777 5778 5778 5779 5780 5781 5783 5784 5785 5787 5788 5790 5792 5794 5796 5798 5800
5745 5746 5747 5748 5749 5750 5750 5751 5752 5753 5754 5755 5757 5758 5759 5760 5761 5762 5763 5764 5764 5765 5765 5766 5766 5767 5767 5768 5769 5770 5771 5772 5774 5775 5777 5778 5780 5782 5784 5786 5788 5790 5792
5735 5736 5737 5738 5739 5740 5741 5742 5743 5743 5744 5746 5747 5748 5750 5752 5752 5752 5753 5754 5754 5755 5755 5756 5756 5756 5757 5758 5759 5761 5762 5763 5764 5766 5768 5770 5772 5774 5776 5778 5780 5782 5784
5725 5726 5727 5728 5729 5730 5731 5732 5732 5734 5735 5736 5737 5737 5739 5741 5742 5743 5743 5743 5744 5744 5745 5745 5745 5746 5747 5748 5750 5751 5752 5754 5755 5757 5758 5760 5762 5765 5767 5769 5771 5773 5776
5714 5716 5717 5718 5719 5720 5720 5721 5722 5723 5724 5725 5726 5726 5727 5728 5730 5732 5733 5732 5732 5733 5733 5734 5735 5736 5737 5738 5740 5741 5742 5744 5745 5747 5749 5751 5753 5756 5758 5760 5763 5764 5767
5703 5704 5706 5707 5708 5708 5709 5710 5711 5711 5712 5713 5714 5715 5715 5716 5717 5719 5721 5721 5721 5722 5722 5723 5724 5725 5726 5727 5729 5731 5732 5734 5735 5737 5739 5741 5743 5746 5748 5751 5753 5755 5757
5691 5692 5693 5695 5696 5697 5697 5698 5698 5699 5700 5701 5702 5703 5703 5704 5705 5706 5707 5709 5710 5710 5711 5711 5712 5714 5715 5716 5718 5720 5721 5723 5725 5727 5729 5731 5733 5735 5738 5740 5743 5745 5747
5678 5680 5680 5682 5683 5684 5684 5685 5686 5687 5687 5688 5690 5690 5691 5692 5692 5693 5694 5695 5696 5698 5699 5700 5700 5701 5703 5704 5706 5707 5709 5712 5714 5715 5717 5719 5722 5724 5727 5729 5731 5734 5736
5665 5666 5667 5668 5669 5670 5671 5672 5673 5674 5674 5675 5676 5677 5678 5678 5679 5679 5680 5681 5683 5685 5686 5688 5688 5689 5690 5692 5693 5695 5697 5699 5701 5703 5705 5707 5710 5712 5715 5717 5720 5722 5724
5651 5652 5653 5654 5655 5656 5657 5658 5659 5660 5661 5662 5663 5664 5664 5665 5665 5666 5667 5667 5669 5671 5674 5675 5675 5676 5677 5679 5680 5682 5684 5686 5688 5690 5693 5695 5697 5700 5702 5705 5707 5710 5712
5636 5637 5639 5640 5641 5642 5643 5644 5645 5645 5646 5647 5648 5650 5650 5651 5652 5652 5653 5654 5654 5656 5659 5662 5662 5663 5664 5665 5667 5668 5670 5672 5675 5677 5679 5682 5684 5687 5689 5692 5695 5696 5699
5622 5623 5624 5625 5626 5627 5628 5628 5629 5630 5631 5632 5633 5635 5636 5636 5637 5638 5639 5640 5640 5641 5643 5647 5648 5649 5650 5651 5653 5654 5656 5659 5661 5664 5666 5668 5670 5673 5676 5678 5681 5683 5685
5607 5608 5609 5609 5610 5611 5612 5613 5613 5614 5616 5617 5618 5620 5621 5621 5622 5623 5624 5625 5626 5627 5628 5631 5633 5634 5636 5637 5639 5641 5642 5645 5647 5650 5652 5654 5656 5658 5661 5664 5666 5669 5671
5592 5593 5593 5594 5595 5595 5596 5596 5597 5598 5600 5601 5603 5604 5605 5606 5607 5608 5609 5610 5611 5611 5613 5615 5618 5619 5621 5622 5624 5626 5628 5630 5632 5635 5637 5639 5642 5644 5646 5648 5651 5653 5656
5577 5577 5578 5578 5578 5579 5579 5580 5581 5582 5583 5585 5586 5588 5589 5590 5591 5592 5593 5594 5594 5596 5597 5599 5601 5604 5606 5607 5609 5611 5613 5615 5617 5619 5622 5624 5626 5629 5631 5633 5636 5638 5640
5561 5561 5562 5562 5562 5563 5563 5563 5564 5565 5567 5568 5570 5571 5573 5574 5574 5575 5576 5578 5578 5579 5581 5582 5585 5587 5590 5591 5593 5595 5597 5599 5601 5603 5606 5609 5611 5614 5616 5617 5620 5622 5625
5545 5545 5545 5546 5546 5546 5547 5547 5547 5548 5550 5552 5553 5555 5556 5557 5558 5558 5559 5560 5561 5562 5564 5565 5568 5570 5573 5574 5576 5577 5579 5582 5586 5590 5590 5593 5595 5598 5600 5603 5605 5607 5609
5529 5529 5529 5529 5530 5530 5530 5530 5530 5531 5533 5535 5536 5538 5539 5540 5540 5541 5542 5543 5544 5545 5546 5548 5550 5553 5555 5557 5558 5560 5562 5564 5569 5572 5573 5577 5579 5582 5585 5587 5589 5591 5593
5512 5513 5513 5513 5513 5513 5513 5513 5513 5514 5516 5518 5519 5521 5522 5523 5523 5524 5525 5526 5527 5528 5529 5530 5533 5536 5536 5538 5539 5541 5543 5546 5551 5554 5556 5560 5564 5566 5569 5571 5573 5575 5577
5496 5496 5496 5496 5496 5496 5496 5496 5496 5497 5499 5501 5502 5504 5505 5506 5507 5507 5507 5509 5511 5512 5511 5512 5514 5516 5518 5520 5521 5523 5526 5529 5533 5537 5539 5543 5547 5550 5553 5555 5557 5559 5561
5480 5479 5479 5479 5479 5480 5479 5478 5478 5479 5482 5484 5486 5487 5488 5488 5489 5488 5489 5490 5492 5494 5494 5496 5497 5499 5501 5503 5504 5505 5508 5511 5515 5520 5523 5526 5530 5532 5536 5540 5541 5543 5545
Wind_Speed
27 26 26 26 26 25 25 26 26 26 26 26 26 26 26 26 26 25 25 25 25 24 24 24 24 23 24 24 24 23 23 22 22 22 22 21 21 20 20 19 18 18 17
29 28 28 28 28 27 27 27 27 28 27 27 27 27 28 27 27 27 26 26 26 26 26 26 26 25 25 26 25 25 25 25 24 24 24 23 23 23 22 21 21 20 19
30 30 30 30 29 29 29 29 29 29 29 29 29 28 28 29 29 28 28 28 28 28 28 28 28 28 27 27 28 27 27 27 27 26 26 25 25 25 24 24 23 22 21
32 32 32 32 31 31 31 31 31 30 30 30 30 30 30 30 30 30 30 30 30 29 29 29 30 30 30 30 30 30 30 29 29 28 28 28 27 26 26 25 25 24 23
33 33 33 34 34 33 33 33 33 32 32 32 32 31 31 31 32 32 32 32 32 31 31 32 32 32 32 32 32 31 31 30 30 29 29 29 28 27 27 27 27 26 25
35 35 35 35 35 35 35 34 34 34 34 34 33 33 33 34 34 34 34 33 33 33 33 33 34 34 33 33 32 32 31 31 30 30 30 30 30 29 29 29 28 28 27
38 37 37 37 37 37 36 36 36 35 35 36 36 36 35 35 35 36 36 35 35 35 35 35 35 35 35 34 33 33 32 32 32 31 31 31 31 31 30 30 29 29 30
39 39 39 39 38 37 37 38 38 37 37 37 38 39 38 37 37 37 38 37 37 37 37 36 37 36 36 34 34 34 34 33 33 33 33 33 32 32 31 31 31 31 31
41 41 41 40 40 40 39 39 39 39 39 40 40 40 40 39 39 39 39 39 39 39 39 38 38 37 37 36 36 36 35 35 35 35 35 35 34 34 33 33 33 33 32
43 43 43 42 42 42 41 42 41 41 41 41 41 42 42 42 42 40 40 40 40 40 40 39 39 38 38 38 38 37 37 37 36 36 37 37 36 36 35 35 35 34 34
45 45 45 44 44 44 44 44 44 43 43 43 43 42 43 44 43 43 42 41 41 41 40 40 40 40 40 40 40 40 39 38 38 38 38 38 38 38 38 37 37 36 36
47 47 47 47 46 46 46 45 46 46 45 45 45 44 44 44 44 45 45 43 43 42 42 41 42 42 41 42 42 42 41 40 40 40 40 40 40 40 40 40 40 39 39
50 49 48 48 48 49 48 48 48 47 48 47 46 46 47 47 46 46 46 45 45 44 44 43 43 43 43 43 43 44 43 43 42 42 41 41 42 41 42 42 42 41 41
51 51 51 51 50 51 51 50 50 50 50 49 49 49 49 48 48 47 47 47 46 45 45 45 45 45 45 45 45 45 46 45 45 44 44 43 44 44 44 43 43 43 43
52 52 52 53 52 51 52 52 52 52 51 51 51 51 50 50 49 49 48 48 47 47 46 46 47 47 46 47 47 47 47 47 47 46 46 46 45 46 46 46 45 45 45
53 53 54 54 54 54 54 54 54 53 54 53 53 52 52 52 51 51 50 50 49 49 48 47 48 48 48 48 48 48 48 48 48 48 48 47 47 47 47 47 47 46 47
54 54 55 55 55 55 55 56 55 55 56 55 54 54 54 54 54 53 52 51 50 51 50 49 49 50 49 49 49 49 50 50 50 49 49 49 49 49 50 49 48 48 48
54 54 55 55 55 56 56 57 57 56 56 56 56 56 55 56 56 55 54 53 52 52 52 51 50 51 51 51 51 51 51 51 50 50 50 50 50 50 51 51 51 50 50
54 55 55 56 56 56 57 57 58 57 57 57 57 57 57 57 57 56 55 54 54 54 54 53 52 52 52 52 52 52 52 52 52 51 51 51 51 51 52 52 53 52 52
56 56 56 57 57 57 57 58 58 58 58 58 59 58 58 58 58 56 56 55 55 55 55 55 54 53 54 53 54 54 54 54 54 53 52 52 52 52 52 52 53 53 53
56 57 57 57 57 58 58 58 57 57 57 58 59 59 59 59 58 58 57 56 56 57 57 56 56 55 55 56 55 55 55 55 55 55 54 53 53 53 53 52 53 53 53
56 57 57 57 57 57 57 57 57 57 57 57 58 59 59 59 59 59 58 57 58 58 59 59 58 57 56 57 57 57 57 57 56 55 55 54 54 53 53 53 53 53 53
57 57 57 57 57 57 58 58 58 58 58 57 58 59 59 59 59 58 58 58 58 58 58 58 58 58 58 58 58 59 58 58 57 56 56 55 55 54 54 54 54 54 54
56 56 56 57 57 58 58 59 59 59 59 58 59 59 59 59 59 59 59 58 57 57 58 58 58 58 58 58 58 58 58 58 57 57 57 56 55 55 55 55 55 55 55
53 55 56 56 57 58 58 59 59 59 59 58 58 59 59 59 59 59 59 58 58 58 58 59 58 58 57 57 57 58 58 58 58 57 57 57 56 55 55 55 55 55 55
50 51 53 54 55 56 56 57 58 59 58 58 58 59 59 59 58 57 58 58 58 58 59 58 58 57 57 56 57 58 57 58 58 57 56 56 56 56 55 55 55 55 54
Wind_Direction
260 260 261 262 262 261 262 262 264 264 264 264 262 262 261 261 262 264 264 263 263 262 263 262 259 260 261 261 261 260 259 259 260 259 258 258 258 257 257 257 256 255 255
260 261 262 262 262 262 263 264 264 264 264 263 262 262 262 262 263 264 263 263 263 262 263 262 261 260 261 261 262 260 260 260 261 261 260 259 258 257 256 256 256 254 255
260 261 262 262 262 263 264 265 265 264 263 262 261 261 262 263 262 263 263 264 264 264 264 263 262 261 262 262 263 262 262 261 260 261 261 259 258 257 255 255 255 254 256
261 261 262 262 263 264 265 264 264 263 262 262 261 260 261 263 264 263 264 265 265 265 265 265 264 263 264 263 264 264 263 261 260 260 260 259 258 257 256 254 254 255 255
261 262 263 263 264 264 264 264 262 261 261 261 262 261 262 262 264 264 264 265 266 267 267 267 265 265 264 263 264 264 263 261 259 258 257 256 256 256 256 255 254 255 255
262 263 263 263 264 264 264 264 262 261 261 261 261 262 262 263 264 264 265 266 267 267 268 267 266 266 264 263 262 261 260 259 258 257 255 254 254 255 255 254 254 254 254
262 263 264 264 264 264 265 264 263 263 262 261 261 262 263 264 265 264 265 266 268 268 267 267 266 265 263 260 259 258 259 258 257 256 254 253 253 254 254 254 254 254 253
261 263 264 265 264 264 264 264 264 263 263 263 263 262 263 264 265 265 266 266 268 268 267 267 265 263 261 259 259 258 258 257 255 254 253 253 253 253 254 255 255 255 253
261 262 263 264 264 263 264 265 265 265 264 264 264 264 263 264 264 264 265 267 267 267 267 266 264 262 260 259 258 258 258 257 256 255 253 252 252 253 254 254 255 254 253
261 262 263 263 264 264 264 265 266 266 265 265 265 264 265 265 264 263 264 266 267 266 266 265 263 261 260 259 257 257 258 258 257 256 254 254 253 254 253 253 254 255 254
261 262 262 263 264 264 265 266 266 265 265 265 265 265 264 264 264 265 265 265 266 265 265 264 263 261 260 259 257 257 257 257 257 257 255 255 255 254 254 254 254 255 254
261 262 262 263 264 264 265 266 266 265 265 264 264 264 265 265 266 266 266 264 264 264 264 263 263 262 261 260 258 257 257 257 257 257 256 255 254 255 255 255 255 256 255
261 262 262 263 264 264 265 265 266 266 265 264 264 265 266 266 267 267 267 265 264 263 263 263 263 262 261 261 260 257 257 257 258 258 258 256 255 255 256 256 256 256 255
261 261 262 263 264 264 265 265 266 266 265 264 265 265 266 267 266 266 266 265 265 262 262 262 263 262 262 261 261 259 258 258 258 259 259 258 256 255 256 257 257 257 256
261 261 262 264 264 264 264 265 266 266 265 265 265 265 266 266 265 265 265 266 265 263 261 261 262 262 262 262 261 260 260 258 258 259 259 258 257 256 256 256 257 258 256
262 262 263 264 264 264 265 265 265 265 265 265 265 265 265 265 264 264 265 265 265 264 262 261 261 261 261 261 261 260 259 259 259 259 259 258 256 256 256 256 258 258 256
263 264 264 265 264 265 265 266 265 265 265 264 265 265 264 264 264 264 265 266 265 264 263 261 261 261 261 261 261 261 260 259 259 259 259 258 257 257 257 258 258 258 256
263 264 265 265 265 265 266 266 266 265 264 264 264 264 264 263 264 264 265 265 265 264 264 262 260 260 260 261 261 261 261 259 259 259 260 259 258 259 259 258 258 258 257
263 265 265 265 266 266 266 266 266 265 264 263 263 263 264 264 264 264 265 265 264 264 265 264 262 260 260 261 261 261 262 260 260 259 259 259 259 260 259 259 258 258 258
264 264 265 265 266 266 267 267 266 265 264 263 263 263 264 264 264 264 264 265 264 264 265 264 263 262 261 261 262 262 262 261 260 259 259 260 260 260 259 259 259 259 258
265 265 265 265 265 266 266 266 266 265 265 264 263 263 263 264 264 264 265 266 266 265 265 264 264 263 262 261 262 262 262 261 260 260 260 260 260 260 260 259 259 259 258
265 266 266 265 266 266 267 267 266 265 264 264 263 264 264 265 266 266 266 266 266 265 265 264 263 263 263 262 262 262 261 260 259 259 259 260 260 260 260 260 260 260 259
266 266 266 266 266 267 267 267 266 265 264 264 264 264 265 266 266 266 266 266 265 265 265 264 263 263 263 263 263 261 260 259 258 258 259 259 260 260 260 260 261 261 260
267 266 267 267 267 267 268 267 266 265 265 265 264 264 264 265 266 266 266 265 265 264 264 264 264 263 263 263 262 260 258 258 258 258 258 258 259 259 259 259 260 260 261
268 268 267 267 267 268 268 267 267 266 265 264 264 264 265 266 266 266 266 266 265 264 264 263 263 262 262 261 261 260 259 259 258 257 258 259 258 259 259 258 259 259 260
270 269 268 268 268 268 268 268 267 266 265 264 264 265 266 266 266 266 266 266 265 264 263 263 262 261 261 261 261 261 260 260 258 257 258 259 258 259 259 258 259 259 259